Kansas City International, MO

8:13 PM CST on November 19, 2019 (GMT -0600)
Kansas City International

Weather History for KMCI - October, 2019

Change the Weather History Date:

Sunday, October 20, 2019

  Actual Average Record
Temperature  
Mean Temperature 54 °F 55 °F  
Max Temperature 66 °F 66 °F 89 °F (1979)
Min Temperature 42 °F 45 °F 25 °F (1989)
Degree Days  
Heating Degree Days 11 10  
Month to date heating degree days 195 156  
Since 1 July heating degree days 195 223  
Cooling Degree Days 0 0  
Month to date cooling degree days 22 24  
Year to date cooling degree days 1449 1356  
Growing Degree Days 4 (Base 50)    
Moisture  
Dew Point 50 °F    
Average Humidity 76    
Maximum Humidity 100    
Minimum Humidity 52    
Precipitation  
Precipitation 0.13 in 0.10 in 2.40 in (1971)
Month to date precipitation 1.42 2.18  
Year to date precipitation 50.29 34.20  
Snow  
Snow 0.00 in 0.00 in 0.00 in ()
Month to date snowfall 0.0 0.1  
Since 1 July snowfall T 0.1  
Since 1 September snowfall T 0.1  
Snow Depth 0.00 in    
Sea Level Pressure  
Sea Level Pressure 29.73 in    
Wind  
Wind Speed 13 mph (SE)    
Max Wind Speed 24 mph    
Max Gust Speed 33 mph    
Visibility 8 miles    
Events Rain    
T = Trace of Precipitation, MM = Missing Value Source: NWS Daily Summary

Daily Weather History Graph

Daily Weather History Graph

Search for Another Location

Airport or City:

Astronomy

Oct. 20, 2019 Rise Set
Actual Time 7:33 AM CDT 6:33 PM CDT
Civil Twilight 7:06 AM CDT 7:00 PM CDT
Nautical Twilight 6:35 AM CDT 7:31 PM CDT
Astronomical Twilight 6:04 AM CDT 8:02 PM CDT
Moon 11:44 PM CDT 2:00 PM CDT
Length of Visible Light 11h 53m
Length of Day
10h 59m
Waning Gibbous, 59% of the Moon is Illuminated
Oct 20
Waning Gibbous
Oct 21
Last Quarter
Oct 27
New
Nov 4
First Quarter
Nov 12
Full

Hourly Weather History & Observations

Time (CDT) Temp. Windchill Dew Point Humidity Pressure Visibility Wind Dir Wind Speed Gust Speed Precip Events Conditions
12:53 AM 48.9 °F - 48.0 °F 97% 29.83 in 6.0 mi SSE 5.8 mph - N/A   Clear
1:53 AM 48.0 °F - 48.0 °F 100% 29.83 in 4.0 mi SSE 5.8 mph - N/A   Clear
2:53 AM 45.0 °F 41.2 °F 45.0 °F 100% 29.83 in 4.0 mi SSE 6.9 mph - N/A   Clear
3:53 AM 44.1 °F 39.0 °F 43.0 °F 96% 29.82 in 4.0 mi SSE 9.2 mph - N/A   Clear
4:53 AM 45.0 °F 40.6 °F 45.0 °F 100% 29.82 in 7.0 mi SSE 8.1 mph - N/A   Clear
5:53 AM 44.1 °F 40.1 °F 44.1 °F 100% 29.83 in 7.0 mi SSE 6.9 mph - N/A   Clear
6:53 AM 45.0 °F 41.2 °F 45.0 °F 100% 29.84 in 6.0 mi SSE 6.9 mph - N/A   Clear
7:53 AM 42.1 °F 37.1 °F 42.1 °F 100% 29.84 in 3.0 mi SSE 8.1 mph - N/A   Partly Cloudy
8:53 AM 52.0 °F - 52.0 °F 100% 29.85 in 7.0 mi SSE 6.9 mph - N/A   Scattered Clouds
9:53 AM 55.9 °F - 54.0 °F 93% 29.85 in 10.0 mi SSE 12.7 mph - N/A   Scattered Clouds
10:53 AM 59.0 °F - 50.0 °F 72% 29.83 in 10.0 mi SSE 18.4 mph - N/A   Scattered Clouds
11:53 AM 61.0 °F - 48.9 °F 64% 29.82 in 10.0 mi SE 19.6 mph 26.5 mph N/A   Scattered Clouds
12:53 PM 64.0 °F - 48.0 °F 56% 29.77 in 10.0 mi SE 23.0 mph - N/A   Scattered Clouds
1:53 PM 64.0 °F - 46.9 °F 54% 29.74 in 10.0 mi SE 18.4 mph 29.9 mph N/A   Mostly Cloudy
2:53 PM 64.9 °F - 48.0 °F 54% 29.71 in 10.0 mi SSE 18.4 mph 24.2 mph N/A   Mostly Cloudy
3:53 PM 64.0 °F - 48.9 °F 58% 29.68 in 10.0 mi ESE 18.4 mph - N/A   Overcast
4:53 PM 63.0 °F - 51.1 °F 65% 29.66 in 10.0 mi SE 13.8 mph - N/A   Overcast
5:53 PM 63.0 °F - 52.0 °F 67% 29.65 in 10.0 mi ESE 12.7 mph - N/A   Clear
6:53 PM 61.0 °F - 53.1 °F 75% 29.67 in 10.0 mi East 13.8 mph - N/A   Overcast
7:53 PM 59.0 °F - 53.1 °F 81% 29.67 in 10.0 mi ESE 15.0 mph - N/A   Overcast
8:53 PM 57.9 °F - 53.1 °F 84% 29.63 in 10.0 mi ESE 12.7 mph - N/A   Overcast
9:53 PM 57.9 °F - 54.0 °F 87% 29.56 in 10.0 mi ESE 16.1 mph - N/A   Overcast
10:53 PM 57.9 °F - 55.0 °F 90% 29.52 in 10.0 mi ESE 13.8 mph - N/A   Overcast
11:21 PM 57.9 °F - 55.0 °F 90% 29.62 in 10.0 mi West 10.4 mph 20.7 mph 0.00 in Rain Light Rain
11:29 PM 57.9 °F - 55.0 °F 90% 29.60 in 9.0 mi WNW 6.9 mph - 0.00 in Rain Light Rain
11:53 PM 57.0 °F - 55.9 °F 96% 29.60 in 3.0 mi West 6.9 mph - 0.02 in Rain Light Rain